Location: Monteux
(44.0348°N, 4.9972°E)
Time: 05:29:17
(UTC+00:00)

Cosmos 2341 Rocket - Pass Details

Date: 29 April 2021
Orbit: 969 x 1003 km, 82.9° (Epoch: 11 May)

Event Time Altitude Azimuth Distance (km) Brightness Sun altitude
Rises 23:11:56 0° 354° (N) 3,729 8.2 -30.9°
Reaches altitude 10° 23:14:31 10° 359° (N) 2,779 7.3 -31.0°
Enters shadow 23:20:41 60° 72° (ENE) 1,138 4.3 -31.1°
